Flag for Israel Weather past 2 weeks in Ramat Gan, Israel

Now
82 °F

Passing clouds.


Feels Like: 88 °F
Forecast: 75 / 89 °F
Wind: 6 mph from Northwest

Location: Dov Airport

Current Time: Aug 29, 2014 at 9:38:58 PM

Latest Report: Aug 29, 2014 at 8:50 PM


Visibility: N/A

Pressure: 29.77 "Hg

Humidity: 74%

Dew point: 73 °F

Location of Ramat GanLocation

Historic Weather in Ramat Gan — Graph

°F

Ramat Gan temperature yesterday

Maximum temperature yesterday: 90 °F (at 10:50 AM)
Minimum temperature yesterday: 77 °F (at 4:50 AM)
Average temperature yesterday: 84 °F

Past Weeks' High & Low Weather Summary

 TemperatureHumidityPressure
High90 °F (Aug 18, 11:50 AM)89% (Aug 24, 4:50 AM)29.92 "Hg (Aug 24, 4:50 AM)
Low77 °F (Aug 17, 4:50 AM)55% (Aug 21, 8:50 AM)29.59 "Hg (Aug 17, 3:50 PM)
Average84 °F70%29.75 "Hg
* Reported Aug 14 7:50 PM — Aug 29 7:50 PM, Ramat Gan, Weather by CustomWeather, © 2014

Note: Actual official high and low records may vary slightly from our data, if they occured in-between our weather recording intervals... More about our weather records

Advertising

Ramat Gan weather history for previous 24 hours

 ConditionsComfort  
Time TempWeatherWind HumidityBarometerVisibility
7:50 PM
Aug 29
82 °FScattered clouds.7 mph74%29.77 "HgN/A
6:50 PM84 °FScattered clouds.8 mph70%29.77 "HgN/A
5:50 PM86 °FScattered clouds.12 mph66%29.74 "HgN/A
4:50 PM86 °FPassing clouds.12 mph66%29.74 "HgN/A
3:50 PM88 °FPassing clouds.12 mph66%29.74 "HgN/A
2:50 PM88 °FPassing clouds.13 mph62%29.74 "HgN/A
1:50 PM88 °FPassing clouds.13 mph62%29.77 "HgN/A
12:50 PM86 °FPassing clouds.12 mph62%29.77 "HgN/A
11:50 AM88 °FPassing clouds.10 mph62%29.77 "HgN/A
10:50 AM88 °FPassing clouds.8 mph59%29.77 "HgN/A
9:50 AM86 °FScattered clouds.7 mph62%29.80 "HgN/A
8:50 AM84 °FPassing clouds.6 mph62%29.77 "HgN/A
7:50 AM81 °FPassing clouds.6 mph70%29.77 "HgN/A
6:50 AM77 °FPassing clouds.7 mph74%29.74 "HgN/A
5:50 AM77 °FPassing clouds.6 mph74%29.74 "HgN/A
4:50 AM77 °FPassing clouds.5 mph74%29.74 "HgN/A
3:50 AM79 °FPassing clouds.3 mph70%29.74 "HgN/A
10:50 PM
Aug 28
82 °FPassing clouds.7 mph66%29.74 "HgN/A
9:50 PM82 °FPassing clouds.3 mph70%29.74 "HgN/A
Weather by CustomWeather, © 2014

See weather overviewHow to use our weather pages